[[{"header":{"parameterUnit":"m.s-1","parameterCategory":1,"la1":30.2991,"la2":30.254,"lo1":-89.0895,"lo2":-89.0444,"dy":0.0017,"dx":0.0017,"nx":28,"ny":28,"refTime":"2026-02-16T09:00:00:Z","depth":0,"parameterNumber":2,"parameterNumberName":"U-component_of_WINDS"},"data":[0,0,0,0,0,0,0,0,0,0,0,0,0,0,0,0,0,0,0,0,0,0,0,0,0,0,0,0,0,0,0,0,0,0,0,0,0,0,0,0,0,0,0,0,0,0,0,0,0,0,0,0,0,0,0,0,0,0,-0.2184,-0.2185,0,-0.2269,-0.227,-0.2271,-0.2309,-0.2309,-0.2309,-0.2309,-0.24,-0.2402,-0.2404,0,0,0,0,0,0,0,0,0,0,0,0,0,-0.2058,-0.2061,-0.2184,-0.2185,-0.2186,-0.2268,-0.227,-0.2271,-0.2309,-0.2309,-0.2309,-0.2309,-0.2399,-0.2402,-0.2405,0,0,0,0,0,0,0,0,0,0,0,0,0,-0.2125,-0.2061,-0.2183,-0.2215,-0.2218,-0.2268,-0.227,-0.2271,-0.2309,-0.2309,-0.2309,-0.2309,-0.2398,-0.2401,-0.2405,-0.2431,0,0,-0.2417,-0.2418,0,0,0,0,0,0,0,0,-0.2121,-0.213,-0.2209,-0.2213,-0.2217,-0.2278,-0.2259,-0.2325,-0.2309,-0.2275,-0.2309,-0.2309,-0.2359,-0.2366,-0.2383,-0.2435,-0.2439,-0.2417,-0.2419,-0.2421,-0.2422,0,0,0,0,0,0,0,-0.2117,-0.2126,-0.2217,-0.221,-0.2215,-0.2226,-0.2235,-0.2271,-0.2317,-0.2278,-0.2281,-0.229,-0.2362,-0.2379,-0.2385,-0.2441,-0.2417,-0.242,-0.2422,-0.2424,-0.252,-0.252,0,0,0,0,0,0,-0.2106,-0.2122,-0.2215,-0.222,-0.2168,-0.2228,-0.2239,-0.2259,-0.2317,-0.2325,-0.229,-0.2292,-0.2373,-0.2381,-0.2389,-0.2423,-0.2421,-0.2424,-0.2426,-0.252,-0.252,-0.252,0,0,0,0,0,0,-0.2103,-0.2114,-0.2211,-0.2172,-0.2185,-0.223,-0.2253,-0.226,-0.2278,-0.2326,-0.2335,-0.2299,-0.2373,-0.2383,-0.242,-0.2427,-0.2426,-0.2429,-0.2519,-0.252,-0.252,-0.2493,0,0,0,0,0,0,-0.21,-0.2113,-0.2122,-0.2172,-0.2187,-0.224,-0.2253,-0.2262,-0.2284,-0.2286,-0.2337,-0.2345,-0.2374,-0.2414,-0.2424,-0.2432,-0.2432,-0.2519,-0.252,-0.252,-0.2493,-0.2492,-0.2491,0,0,0,0,0,-0.2095,-0.2112,-0.2123,-0.2134,-0.2199,-0.224,-0.2249,-0.2281,-0.2284,-0.2295,-0.2326,-0.2344,-0.2425,-0.2418,-0.2429,-0.2438,-0.2519,-0.2519,-0.252,-0.2494,-0.2492,-0.2491,0,0,0,0,0,0,-0.2063,-0.2119,-0.2131,-0.2164,-0.2197,-0.2247,-0.2261,-0.2278,-0.2312,-0.2313,-0.2351,-0.2363,-0.2396,-0.2421,-0.2413,-0.2467,-0.2473,-0.2476,-0.2449,-0.2449,-0.2448,-0.2441,-0.2435,0,0,0,0,0,-0.206,-0.2087,-0.2135,-0.216,-0.2175,-0.2215,-0.2234,-0.2255,-0.2292,-0.2306,-0.234,-0.2375,-0.2409,-0.243,-0.2464,-0.2497,-0.2509,-0.2509,-0.2508,-0.2507,-0.2509,-0.2529,-0.253,-0.2523,-0.2523,-0.2523,0,0,-0.2054,-0.2088,-0.2103,-0.2154,-0.2182,-0.2211,-0.2227,-0.2256,-0.2279,-0.2311,-0.2348,-0.2374,-0.2416,-0.2451,-0.2469,-0.2473,-0.2514,-0.2508,-0.2507,-0.251,-0.253,-0.2531,-0.2531,-0.2523,-0.2523,-0.2523,0,0,-0.2057,-0.2085,-0.2109,-0.2136,-0.2178,-0.2204,-0.221,-0.2257,-0.2275,-0.2312,-0.2337,-0.2365,-0.2422,-0.2451,-0.2473,-0.2488,-0.2506,-0.2498,-0.2492,-0.2512,-0.2512,-0.2513,-0.2519,-0.252,-0.25,-0.2499,-0.2499,0,-0.2044,-0.2087,-0.2119,-0.2147,-0.2169,-0.2199,-0.2224,-0.225,-0.23,-0.2316,-0.232,-0.2392,-0.2422,-0.2465,-0.2469,-0.2485,-0.2494,-0.2492,-0.2509,-0.251,-0.2512,-0.2518,-0.2519,-0.2498,-0.2498,-0.2499,-0.2499,0,-0.207,-0.2099,-0.2114,-0.2161,-0.2185,-0.2211,-0.2248,-0.2269,-0.2288,-0.2314,-0.2353,-0.239,-0.2432,-0.2444,-0.2463,-0.249,-0.2491,-0.2502,-0.2509,-0.2511,-0.2517,-0.2519,-0.2496,-0.2497,-0.2497,-0.2498,0,0,-0.2056,-0.212,-0.2124,-0.2146,-0.2194,-0.2219,-0.2247,-0.2287,-0.2304,-0.2338,-0.2364,-0.2411,-0.2421,-0.2447,-0.247,-0.2486,-0.2496,-0.2495,-0.2497,-0.2495,-0.2528,-0.252,-0.2522,-0.2508,-0.2509,-0.2509,-0.2525,0,-0.2066,-0.2116,-0.2146,-0.2184,-0.2213,-0.2241,-0.2266,-0.2299,-0.2325,-0.2353,-0.2382,-0.2415,-0.2426,-0.2442,-0.2459,-0.2491,-0.2504,-0.249,-0.2534,-0.2535,-0.2522,-0.2525,-0.2517,-0.253,-0.2528,-0.2528,-0.2528,0,-0.2084,-0.2117,-0.2158,-0.2203,-0.2216,-0.2238,-0.2277,-0.2303,-0.2342,-0.2359,-0.2387,-0.241,-0.2443,-0.2447,-0.2493,-0.2483,-0.2503,-0.2521,-0.2522,-0.2528,-0.2532,-0.2531,-0.2534,-0.2536,-0.2532,-0.2532,-0.2532,0,-0.207,-0.2124,-0.2156,-0.2174,-0.2227,-0.2242,-0.2265,-0.2303,-0.2325,-0.236,-0.2375,-0.2413,-0.2434,-0.2464,-0.2497,-0.2497,-0.254,-0.2547,-0.2557,-0.2556,-0.2565,-0.2564,-0.2571,-0.2576,-0.2576,-0.2576,-0.2576,0,-0.2078,-0.2103,-0.215,-0.217,-0.2198,-0.2232,-0.226,-0.2286,-0.232,-0.2346,-0.2373,-0.2398,-0.244,-0.247,-0.2496,-0.253,-0.254,-0.2556,-0.2563,-0.2553,-0.2551,-0.2567,-0.2567,-0.2577,-0.2577,-0.2577,-0.2577,0,-0.2067,-0.21,-0.2136,-0.2184,-0.2196,-0.2215,-0.2257,-0.2277,-0.2304,-0.2337,-0.2347,-0.239,-0.2426,-0.2462,-0.2512,-0.253,-0.2564,-0.2573,-0.255,-0.2554,-0.2562,-0.256,-0.258,-0.2584,-0.2586,-0.2586,-0.2586,0,-0.207,-0.209,-0.2139,-0.2157,-0.218,-0.221,-0.2232,-0.2267,-0.2289,-0.2335,-0.235,-0.2389,-0.2421,-0.2479,-0.2515,-0.2553,-0.2564,-0.2568,-0.257,-0.256,-0.2564,-0.2563,-0.2565,-0.2567,-0.2567,-0.2566,-0.2566,0,-0.2073,-0.2088,-0.2118,-0.2155,-0.218,-0.2211,-0.2243,-0.2257,-0.2298,-0.2322,-0.2359,-0.2384,-0.2434,-0.2472,-0.2515,-0.2541,-0.2561,-0.2565,-0.257,-0.2561,-0.2547,-0.2555,-0.2548,-0.2565,-0.2565,-0.2565,-0.2565,-0.2565,-0.207,-0.2088,-0.2125,-0.2158,-0.2186,-0.2215,-0.2236,-0.2266,-0.2297,-0.2339,-0.2358,-0.2396,-0.2435,-0.2494,-0.2519,-0.255,-0.2555,-0.2561,-0.2563,-0.2564,-0.2562,-0.2541,-0.2558,-0.2558,-0.2558,-0.2558,-0.2558,0,-0.2074,-0.2099,-0.2129,-0.2172,-0.2198,-0.2213,-0.2249,-0.2271,-0.2303,-0.2337,-0.2368,-0.2411,-0.2448,-0.2487,-0.2527,-0.2544,-0.2555,-0.2554,-0.2553,-0.2559,-0.2555,-0.2547,-0.2545,-0.2545,-0.2545,-0.2545,-0.2545,-0.2545,-0.2079,-0.2111,-0.2131,-0.2177,-0.2203,-0.2238,-0.2258,-0.2285,-0.2312,-0.2358,-0.2389,-0.2414,-0.245,-0.2493,-0.2528,-0.2539,-0.2552,-0.2549,-0.2562,-0.2558,-0.2559,-0.256,-0.2553,-0.2551,-0.2551,-0.2564,-0.2564,-0.2564]},{"header":{"parameterUnit":"m.s-1","parameterCategory":1,"la1":30.2991,"la2":30.254,"lo1":-89.0895,"lo2":-89.0444,"dy":0.0017,"dx":0.0017,"nx":28,"ny":28,"refTime":"2026-02-16T09:00:00:Z","depth":0,"parameterNumber":3,"parameterNumberName":"V-component_of_WINDS"},"data":[0,0,0,0,0,0,0,0,0,0,0,0,0,0,0,0,0,0,0,0,0,0,0,0,0,0,0,0,0,0,0,0,0,0,0,0,0,0,0,0,0,0,0,0,0,0,0,0,0,0,0,0,0,0,0,0,0,0,1.1431,1.1432,0,1.1483,1.1484,1.1484,1.1492,1.1492,1.1492,1.1491,1.1549,1.1551,1.1553,0,0,0,0,0,0,0,0,0,0,0,0,0,1.1345,1.1346,1.1431,1.1432,1.1432,1.1483,1.1484,1.1484,1.1493,1.1492,1.1491,1.1491,1.1548,1.1551,1.1553,0,0,0,0,0,0,0,0,0,0,0,0,0,1.1388,1.1347,1.1431,1.1443,1.1444,1.1483,1.1484,1.1484,1.1493,1.1492,1.1491,1.1491,1.1548,1.155,1.1553,1.1586,0,0,1.1562,1.1564,0,0,0,0,0,0,0,0,1.1385,1.1391,1.144,1.1442,1.1444,1.148,1.1474,1.1519,1.1493,1.1474,1.1491,1.149,1.1527,1.1532,1.1543,1.1588,1.1591,1.1563,1.1564,1.1566,1.1567,0,0,0,0,0,0,0,1.1382,1.1389,1.1452,1.1441,1.1443,1.1447,1.1452,1.1483,1.1504,1.1476,1.1477,1.1482,1.1528,1.154,1.1544,1.1592,1.1563,1.1565,1.1567,1.1568,1.1668,1.1668,0,0,0,0,0,0,1.1377,1.1386,1.145,1.1453,1.1412,1.1449,1.1455,1.1469,1.1504,1.1508,1.1483,1.1483,1.1535,1.1541,1.1547,1.1587,1.1566,1.1568,1.157,1.1667,1.1668,1.1669,0,0,0,0,0,0,1.1375,1.1382,1.1448,1.142,1.1429,1.1451,1.1467,1.1471,1.1483,1.1509,1.1513,1.1491,1.1535,1.1542,1.1576,1.1589,1.157,1.1572,1.1666,1.1667,1.1668,1.1669,0,0,0,0,0,0,1.1372,1.1382,1.1393,1.142,1.143,1.1475,1.1468,1.1472,1.1487,1.1488,1.1518,1.1522,1.1535,1.1571,1.1579,1.1593,1.1575,1.1665,1.1666,1.1668,1.1668,1.167,1.1672,0,0,0,0,0,1.1369,1.1392,1.1393,1.1401,1.1444,1.1476,1.1481,1.1494,1.1488,1.1501,1.1518,1.1521,1.1587,1.1575,1.1583,1.1599,1.1664,1.1666,1.1668,1.1667,1.167,1.1672,0,0,0,0,0,0,1.1367,1.1395,1.1398,1.1429,1.145,1.1477,1.1493,1.1497,1.152,1.152,1.1536,1.1543,1.1576,1.1591,1.1577,1.1633,1.1625,1.1629,1.1621,1.1624,1.1626,1.1622,1.1577,0,0,0,0,0,1.137,1.1391,1.1416,1.1441,1.1451,1.147,1.1484,1.1492,1.1515,1.1524,1.1543,1.1567,1.1592,1.1609,1.1634,1.167,1.1678,1.1685,1.1687,1.1689,1.1692,1.1713,1.1717,1.1675,1.1675,1.1675,0,0,1.1377,1.1395,1.1408,1.1441,1.1458,1.1481,1.1478,1.1502,1.152,1.1528,1.1561,1.1576,1.1603,1.1638,1.1654,1.1651,1.1705,1.1691,1.1692,1.1695,1.1716,1.172,1.1723,1.1676,1.1676,1.1676,0,0,1.1401,1.1416,1.144,1.1456,1.1481,1.1494,1.1499,1.1526,1.1536,1.1568,1.1575,1.1598,1.1642,1.1661,1.1676,1.1709,1.1714,1.1717,1.1728,1.1748,1.1752,1.1755,1.1767,1.1772,1.172,1.172,1.172,0,1.1407,1.144,1.1452,1.1476,1.1491,1.1498,1.1523,1.1539,1.1572,1.1583,1.1579,1.1635,1.1653,1.1693,1.1701,1.1713,1.1722,1.1713,1.175,1.1753,1.1756,1.1769,1.1773,1.172,1.172,1.172,1.172,0,1.1447,1.147,1.1486,1.1516,1.1533,1.1558,1.1575,1.1591,1.1598,1.1611,1.1645,1.1668,1.1698,1.1708,1.1715,1.175,1.1747,1.1746,1.1739,1.176,1.1772,1.1777,1.172,1.172,1.172,1.172,0,0,1.1471,1.1506,1.1512,1.1526,1.1554,1.1574,1.16,1.1627,1.1642,1.1664,1.1687,1.1725,1.1724,1.1742,1.1752,1.1769,1.1795,1.1767,1.1768,1.1772,1.1836,1.1836,1.1842,1.1798,1.1799,1.18,1.1834,0,1.1499,1.1543,1.1554,1.1593,1.1615,1.1623,1.1645,1.1666,1.168,1.1702,1.1718,1.1744,1.1741,1.1752,1.177,1.1788,1.1808,1.1786,1.1821,1.1823,1.1815,1.1848,1.1849,1.1879,1.1838,1.1839,1.184,0,1.1538,1.156,1.16,1.1626,1.1636,1.1655,1.1683,1.1703,1.1728,1.1737,1.1756,1.1765,1.1794,1.1785,1.1826,1.181,1.1826,1.1837,1.1839,1.1843,1.1833,1.1854,1.189,1.1894,1.1847,1.1846,1.1846,0,1.1553,1.1593,1.1622,1.1633,1.1664,1.1678,1.1692,1.1715,1.1732,1.1756,1.1767,1.1795,1.1811,1.1833,1.185,1.1841,1.189,1.1882,1.19,1.19,1.191,1.191,1.195,1.1919,1.1919,1.1919,1.1919,0,1.1584,1.1608,1.1629,1.1647,1.1675,1.1689,1.1717,1.1731,1.1752,1.1775,1.1783,1.1804,1.1824,1.1849,1.1862,1.1895,1.1902,1.1911,1.1914,1.1911,1.191,1.1922,1.192,1.192,1.192,1.192,1.1919,0,1.1605,1.162,1.1652,1.1678,1.1685,1.1705,1.1729,1.1747,1.1761,1.1789,1.1797,1.1819,1.1849,1.1867,1.1905,1.1914,1.195,1.1953,1.1942,1.1943,1.196,1.1959,1.201,1.2018,1.1981,1.1981,1.1982,0,1.1624,1.1643,1.1671,1.1686,1.1699,1.1723,1.1739,1.1754,1.1771,1.1801,1.1816,1.1846,1.187,1.1917,1.1938,1.1968,1.1971,1.1987,1.1976,1.1972,1.1973,1.1972,1.1975,1.199,1.199,1.199,1.199,0,1.1657,1.1663,1.1686,1.1711,1.173,1.1751,1.1772,1.1784,1.1803,1.1822,1.1851,1.187,1.1908,1.1938,1.1969,1.1986,1.1992,1.1994,1.1999,1.1996,1.1989,1.1994,1.1948,1.1993,1.1992,1.1992,1.1992,1.1992,1.1679,1.1696,1.1718,1.1743,1.176,1.178,1.1799,1.1814,1.1838,1.1869,1.1877,1.1908,1.1934,1.1976,1.1993,1.2019,1.2017,1.2025,1.2027,1.2029,1.203,1.1984,1.2025,1.2025,1.2025,1.2025,1.2025,0,1.1713,1.1727,1.175,1.1778,1.1798,1.18,1.1824,1.1841,1.1868,1.189,1.1914,1.1948,1.1977,1.2,1.2031,1.2047,1.2051,1.2055,1.2055,1.2059,1.203,1.2022,1.2052,1.2052,1.2052,1.2052,1.2052,1.2052,1.1733,1.1762,1.1771,1.181,1.1825,1.1854,1.1867,1.1886,1.1904,1.1941,1.1965,1.1979,1.2002,1.2035,1.2062,1.2069,1.208,1.2084,1.2091,1.2063,1.206,1.2058,1.2051,1.2086,1.2086,1.2117,1.2118,1.2118]}]]